Simultaneous Nadir Overpasses (SNOs) Predictions

Prediction of SNOs between GOES-15 and METOP-C Satellite Orbit:

Table of predicted SNOs for the next 14.0 days since TLE Epoch: 1/20/2025
Index Date Time (GOES-15) GOES-15 Lat,Lon METOP-C Lat,Lon Distance(km) Time Diff (sec)
1 01/22/2025 05:23:50 -0.01, 61.51 0.02, 61.50 3.52 80
2 01/24/2025 17:22:11 0.02, 61.55 0.07, 61.89 38.39 80
3 01/26/2025 05:41:04 -0.01, 61.58 0.93, 57.33 484.52 80
4 01/27/2025 05:23:04 -0.00, 61.60 -0.17, 62.32 83.01 80
5 01/28/2025 17:42:05 0.00, 61.62 -0.87, 57.73 443.22 80
6 01/29/2025 17:18:45 -0.00, 61.64 0.23, 62.73 122.98 80
7 01/31/2025 05:37:36 0.00, 61.69 0.80, 58.17 401.63 80
8 02/01/2025 05:19:37 0.00, 61.71 -0.31, 63.16 165.55 80
9 02/02/2025 17:38:37 -0.00, 61.72 -0.72, 58.57 360.07 80
